Location: Dormans
(51.1500°N, 0.0000°E)
Time: 22:25:15
(UTC+00:00)

Daily predictions for brighter satellites

Satellite Brightness Start Highest point End
(mag) Time Altitude Azimuth Time Altitude Azimuth Time Altitude Azimuth
Cosmos 1452 Rocket 3.7 16:59:56 10° S 17:05:04 57° ESE 17:10:14 10° NNE
SL-24 R/B - RUBIN 2 4.5 17:02:33 10° NW 17:06:49 54° SW 17:11:07 10° SSE
Thor Agena Rocket 3.5 17:03:04 10° SSE 17:08:04 74° ENE 17:13:07 10° NNW
SL-8 Rocket 4.2 17:02:53 10° NNW 17:09:06 80° W 17:15:15 10° S
Meteor 1-28 Rocket 2.8 17:06:03 10° NNE 17:09:20 66° ESE 17:12:36 10° S
Cosmos 1656 3.7 17:03:49 10° NNW 17:09:27 83° ENE 17:14:58 10° SSE
Cosmos 1484 Rocket 3.1 17:07:01 10° S 17:10:17 59° WSW 17:13:37 10° NNW
SJ 16-02 4.5 17:09:10 10° WNW 17:11:28 14° W 17:13:45 10° SW
Cosmos 1633 Rocket 4.2 17:07:30 10° NNW 17:11:39 47° W 17:15:47 10° SSW
IRS-P3 4.4 17:07:15 10° SE 17:12:15 44° ENE 17:17:16 10° N
Resurs 01 Rocket 3.3 17:10:59 10° E 17:12:56 13° NE 17:14:54 10° NNE
SPOT 1/Viking Rocket 4.0 17:09:03 10° SE 17:13:48 39° ENE 17:18:33 10° N
Cosmos 1869 Rocket 3.7 17:14:53 10° N 17:19:09 48° ENE 17:23:20 10° SSE
Cosmos 1340 Rocket 2.6 17:17:55 10° N 17:21:45 66° ENE 17:25:34 10° SSE
Cosmos 2237 Rocket 4.4 17:19:07 10° NW 17:21:54 14° NNW 17:24:42 10° N
RESURS DK-1 2.3 17:20:16 10° SSW 17:24:14 69° ESE 17:28:13 10° NE
Meteor 2-15 Rocket 4.5 17:18:09 10° N 17:24:15 61° ENE 17:30:17 10° SSE
USA 276 1.5 17:22:35 10° W 17:24:48 65° S 17:27:04 12° E
MOS 1 Rocket 3.4 17:20:10 10° SSE 17:25:18 84° ENE 17:30:11 10° NNW
Cosmos 2322 Rocket 4.2 17:27:52 10° N 17:29:39 11° NNE 17:31:26 10° NNE
SL-16 R/B 4.0 17:25:12 10° W 17:29:40 23° NW 17:34:09 10° NNE
Meteor 2-13 Rocket 4.5 17:24:14 10° S 17:30:20 69° E 17:36:28 10° NNE
ATLAS 5 CENTAUR R/B 2.7 17:28:43 10° WNW 17:31:11 21° NNW 17:33:54 10° NNE
UNK 3.6 17:27:13 10° NNE 17:31:46 75° ESE 17:36:16 10° S
Cosmos 2360 4.4 17:26:45 10° NNW 17:32:31 83° WSW 17:38:13 10° SSE
USA 267 3.6 17:28:11 10° ENE 17:34:30 54° N 17:40:49 10° WNW
DNEPR-1 R/B 3.6 17:30:30 10° SW 17:34:50 73° NW 17:39:04 10° NE
Cosmos 1821 Rocket 4.1 17:29:14 10° N 17:35:27 84° W 17:41:33 10° S
Resurs 1-3 4.1 17:31:44 10° SE 17:35:39 35° ENE 17:39:35 10° N
Radarsat Rocket 4.3 17:31:03 10° SE 17:36:33 41° ENE 17:41:58 10° N
SJ-12 3.7 17:33:34 10° SSE 17:37:23 83° ENE 17:41:14 10° NNW
Okean 1-7 4.4 17:35:32 10° SE 17:38:14 17° E 17:39:53 14° ENE
USA 305 4.0 17:35:33 10° S 17:38:34 24° SE 17:40:58 14° E
SAR-Lupe-1 4.1 17:35:47 10° SSE 17:39:16 55° ENE 17:42:47 10° N
Cosmos 1703 4.0 17:36:39 10° SSW 17:39:50 44° WNW 17:43:02 10° N
Cosmos 2333 Rocket 4.0 17:36:57 10° N 17:39:57 14° NNE 17:42:19 11° NE
Okean 3 3.4 17:36:47 10° S 17:40:43 54° E 17:44:39 10° NNE
CZ-4 R/B 4.4 17:37:35 10° SSE 17:41:27 53° ENE 17:45:21 10° N
ISS -3.8 17:39:38 10° W 17:43:00 84° N 17:45:21 18° E
BREEZE-M (TANK) 2.3 17:43:48 10° SW 17:45:46 37° SSE 17:47:18 18° E
USA 59 Rocket -0.2 17:42:48 10° NW 17:46:07 78° SW 17:50:28 10° SE
SJ-6F 4.3 17:43:05 10° SSE 17:47:07 79° ENE 17:51:10 10° NNW
Cosmos 1980 Rocket 2.7 17:46:02 10° NNW 17:51:14 37° NE 17:56:26 10° ESE
YAOGAN 1 2.7 17:47:59 10° SE 17:52:04 48° ENE 17:56:11 10° N
ARIANE 5 R/B 2.9 17:46:58 10° S 17:52:10 70° WSW 17:57:22 10° NNW
COSMO-SKYMED 1 3.3 17:49:45 13° NE 17:52:51 28° E 17:56:24 10° SSE
SAR-Lupe-4 3.5 17:52:03 10° SSE 17:55:38 88° ENE 17:59:15 10° NNW
Cosmos 1707 Rocket 4.1 17:58:33 10° SSE 18:02:23 33° E 18:05:24 15° NNE
NOSS 2-1 (E) 3.2 18:00:33 10° NW 18:03:53 77° SW 18:08:09 10° SE
NOSS 2-1 (C) 3.5 18:00:56 10° NW 18:04:14 66° SW 18:08:31 10° SSE
GRACE-FO 1 4.5 18:03:03 10° N 18:06:31 56° E 18:09:58 10° SSE
GRACE-FO 2 4.5 18:03:29 10° N 18:06:58 57° E 18:10:25 10° SSE
SKYMED 2 3.6 18:02:39 10° NNE 18:06:59 62° ESE 18:11:17 10° S
Cosmos 1934 Rocket 3.9 18:01:30 10° N 18:07:39 69° ENE 18:13:53 10° SSE
Cosmos 2219 Rocket 4.2 18:05:53 10° N 18:07:44 11° NNE 18:09:08 11° NNE
ATLAS 3B R/B 3.9 18:04:12 10° NW 18:11:13 33° N 18:15:46 19° ENE
Cosmos 1697 Rocket 2.7 18:07:20 10° NNW 18:13:03 89° SW 18:18:43 10° SSE
IRAS Rocket 4.4 18:08:40 10° SE 18:13:57 49° ENE 18:19:19 10° N
NOSS 3-4 (A) 4.0 18:11:53 10° WSW 18:17:06 46° NNW 18:21:44 16° NE
NOSS 3-4 (C) 4.0 18:12:01 10° WSW 18:17:17 47° NNW 18:21:57 16° NE
Cosmos 1302 Rocket 4.4 18:14:22 10° SW 18:19:35 66° WNW 18:24:52 10° NNE
Cosmos 1833 Rocket 2.6 18:14:44 10° SSW 18:20:20 70° ESE 18:24:41 17° NE
Cosmos 2360 Rocket 3.9 18:17:24 10° N 18:20:38 15° NNE 18:21:10 15° NNE
Cosmos 1503 Rocket 4.3 18:16:45 10° NNW 18:21:45 43° ENE 18:24:39 23° ESE
COSMOS 2455 2.8 18:17:51 10° NW 18:23:57 88° NE 18:29:59 10° SE
Cosmos 1733 Rocket 2.9 18:20:01 10° N 18:24:25 86° E 18:28:45 10° S
PSLV R/B 3.3 18:21:01 10° SSE 18:25:09 73° ENE 18:29:20 10° N
Cosmos 2082 Rocket 3.7 18:21:25 10° SE 18:23:38 17° ESE 18:23:38 17° ESE
NOSS 3-1 (A) 3.9 18:21:47 10° NW 18:28:27 66° NE 18:34:56 18° ESE
SL-16 R/B 3.4 18:24:16 10° NNW 18:28:45 23° NE 18:29:07 23° NE
CARTOSAT-1 3.4 18:25:36 10° SSE 18:29:46 67° ENE 18:33:58 10° N
SL-16 R/B 4.2 18:26:33 10° N 18:31:47 30° NW 18:37:01 10° WSW
CZ-2D R/B 3.6 18:31:19 10° S 18:35:06 65° WSW 18:38:55 10° NNW
NOSS 3-1 (C) 4.2 18:32:32 10° NW 18:39:27 73° SW 18:48:07 10° SSE
Meteor 2-19 Rocket 4.3 18:33:38 10° S 18:39:43 72° E 18:45:48 10° NNE
Meteor 1-24 Rocket 4.0 18:34:48 10° SSE 18:40:13 45° E 18:44:05 19° NNE
BREEZE-M DEB (TANK) 2.9 18:36:31 10° W 18:41:01 89° N 18:42:48 38° E
USA 215 4.2 18:40:18 25° ESE 18:41:02 25° SE 18:46:16 10° S
Cosmos 1992 Rocket 4.1 18:35:55 10° SSW 18:41:06 74° WNW 18:45:15 16° NNE
Resurs 01 Rocket 1.4 18:44:13 10° SSE 18:48:35 80° ENE 18:52:59 10° NNW
YAOGAN 3 4.4 18:45:18 10° SSE 18:49:31 88° WSW 18:53:46 10° NNW
SL-24 R/B 4.4 18:49:59 62° ENE 18:49:59 62° ENE 18:54:02 10° N
Cosmos 2228 Rocket 2.9 18:46:37 10° S 18:51:04 77° E 18:52:53 35° NNE
Cosmos 1486 Rocket 4.0 18:46:22 10° NNW 18:51:43 85° WSW 18:56:59 10° SSE
Cosmos 1535 Rocket 4.5 18:48:28 10° N 18:54:54 88° W 19:01:14 10° S
NOAA 6 4.2 18:50:24 10° S 18:55:29 71° WSW 19:00:38 10° NNW
Meteor 2-5 Rocket 3.8 18:51:12 10° S 18:56:36 52° E 18:57:47 45° ENE
USA 276 4.2 18:55:18 10° W 18:56:19 21° WSW 18:56:19 21° WSW
Cosmos 1354 Rocket 4.0 18:54:57 10° NNW 19:00:10 59° ENE 19:00:32 58° E
BlueWalker 3 3.6 18:58:02 10° SSW 18:59:43 22° S 18:59:43 22° S
USA 305 2.9 19:00:40 10° WSW 19:04:02 64° SW 19:04:02 64° SW
Cosmos 2173 Rocket 4.3 19:07:26 10° N 19:12:41 45° NE 19:12:41 45° NE
ATLAS 5 CENTAUR R/B 3.7 19:13:09 10° NNW 19:13:45 12° NNW 19:13:45 12° NNW
Okean 1-7 3.6 19:10:48 10° SSW 19:14:49 53° WNW 19:16:15 35° NNW
Cosmos 2322 Rocket 3.6 19:11:01 10° NNW 19:14:15 24° NNE 19:14:15 24° NNE
USA 267 3.2 19:15:32 53° E 19:17:10 75° NNE 19:23:43 10° WNW
Cosmos 1777 Rocket 4.3 19:14:05 10° NNW 19:19:14 63° WSW 19:22:20 24° S
ISS -1.8 19:16:28 10° W 19:18:17 30° W 19:18:17 30° W
Cosmos 2333 Rocket 3.3 19:20:38 10° NNW 19:24:21 32° NNE 19:24:21 32° NNE
Meteor 2-14 Rocket 4.3 19:20:31 10° S 19:26:36 73° E 19:27:04 69° ENE
COSMO-SKYMED 1 4.0 19:26:03 21° NNW 19:28:10 34° WNW 19:31:54 10° SW
Cosmos 990 Rocket 4.1 19:26:43 10° NNW 19:31:20 69° NNW 19:31:20 69° NNW
USA 59 Rocket 3.1 19:33:38 10° WSW 19:34:34 11° WSW 19:35:33 10° SW
Timation 1 Rocket 4.2 19:29:03 10° SSW 19:35:01 88° WNW 19:35:23 80° NNE
Cosmos 1980 Rocket 3.0 19:30:01 10° NW 19:35:23 49° WSW 19:38:40 23° S
CSL-04 Rocket 4.1 19:41:21 52° NNW 19:41:21 52° NNW 19:45:19 10° NNW
BREEZE-M DEB (TANK) 3.7 19:37:07 10° W 19:40:04 69° SW 19:40:04 69° SW
Cosmos 2369 3.7 19:35:51 10° NNW 19:41:32 74° WSW 19:41:36 74° SW
Cosmos 909 Rocket 4.4 19:37:40 10° SW 19:44:53 65° NW 19:46:34 49° NNE
Cosmos 1809 Rocket 4.5 19:41:58 10° SSW 19:48:09 79° WNW 19:49:50 51° N
Cosmos 2219 Rocket 4.1 19:48:53 10° NNW 19:50:50 19° N 19:50:50 19° N
Aureole 1 Rocket 4.4 19:55:20 10° NNW 20:00:24 52° NNW 20:00:24 52° NNW
ATLAS 3B R/B 3.3 19:56:00 10° NW 20:03:01 51° NNE 20:03:01 51° NNE
Cosmos 1833 Rocket 4.3 19:59:54 10° WSW 20:04:45 29° NW 20:06:24 25° NNW
Cosmos 2360 Rocket 3.9 20:00:42 10° NNW 20:02:55 23° N 20:02:55 23° N
Cosmos 2082 Rocket 3.7 20:03:05 10° SSW 20:05:32 27° SW 20:05:32 27° SW
SL-16 R/B 3.5 20:07:58 10° NNW 20:10:58 33° NNW 20:10:58 33° NNW
USA 215 4.3 20:27:40 36° SW 20:27:40 36° SW 20:31:21 10° SW
